Regional Weather Roundup
Issued by NWS

Home | Current Version | Previous Version | Text Only | Print | Product List | Glossary Off
Versions: 1 2 3 4 5 6 7 8 9 10 11 12 13 14 15 16 17 18 19 20 21 22 23 24 25 26 27 28 29 30 31 32 33 34 35 36 37 38 39 40 41 42 43 44 45 46 47 48 49 50

172
ASUS43 KLOT 311903
RWRIL

ILLINOIS REGIONAL WEATHER ROUNDUP
NATIONAL WEATHER SERVICE CHICAGO/ROMEOVILLE IL
200 PM CDT TUE MAY 31 2016

NOTE: "FAIR" INDICATES FEW OR NO CLOUDS BELOW 12,000 FEET WITH NO
SIGNIFICANT WEATHER AND/OR OBSTRUCTIONS TO VISIBILITY.

* THESE STATIONS ARE NOT UNDER NWS QUALITY CONTROL. THEY ALSO MAY NOT
  REPORT WEATHER SUCH AS PRECIPITATION OR FOG.

ILZ001-002-007-009-015-016-024-312000-
NORTHWEST ILLINOIS

CITY           SKY/WX    TMP DP  RH WIND       PRES   REMARKS
MOLINE         CLOUDY    80  59  48 S7        29.93F HX  81
STERLING*      LGT RAIN  66  65  96 NE9       29.98F
$$

ILZ003-004-008-010-011-017-018-312000-
NORTH CENTRAL ILLINOIS

CITY           SKY/WX    TMP DP  RH WIND       PRES   REMARKS
ROCKFORD       LGT RAIN  66  63  90 CALM      30.06R
FREEPORT*      RAIN      63  61  96 SE3       30.04F
ROCHELLE*      LGT RAIN  64  63  94 W9        30.04R
DE KALB*       HVY RAIN  66  63  90 NW14      30.03R
$$

ILZ005-006-012>014-019>023-312000-
NORTHEAST ILLINOIS

CITY           SKY/WX    TMP DP  RH WIND       PRES   REMARKS
CHICAGO-OHARE  PTSUNNY   81  59  47 E10       29.96S HX  81
CHICAGO-MIDWAY PTSUNNY   83  58  42 E13       29.95F HX  83
AURORA         LGT RAIN  71  62  73 NW13      29.99R
LANSING*       MOSUNNY   82  56  41 E8        29.95F HX  82
WAUKEGAN       SUNNY     71  57  61 E8        29.99S
DUPAGE AIRPORT CLOUDY    74  60  61 N17       29.97F
WHEELING       MOSUNNY   78  58  49 E9        29.98F
NORTHERLY ISL    N/A     70  57  63 NE6         N/A
$$

LMZ740>746-312000-
SOUTHERN LAKE MICHIGAN

STATION/POSITION SKY/WX   TEMP    WIND        PRES    VSBY  WAVE
                          AIR SEA DIR/SP/G                  HT/PER
                          (F)     (DEG/KT/KT) (MB)    (MI)  (FT/S)
SOUTHERN BUOY              57 55   60/  6/  6 1016.1          0
WILMETTE HARBOR            64 61  100/  6/  8   N/A           1
HARRISON CRIB              68      80/ 13/ 14   N/A
BURNHAM HARBOR             71     350/  3/  7   N/A
CALUMET HARBOR             66      50/  9/ 13 1014.7F
BURNS HARBOR               75      80/  7/ 10 1015.6F
MICHIGAN CITY              80      90/  8/ 10   N/A
MICHIGAN CITY 6N           67 63   50/  6/  8   N/A           0
ST. JOSEPH                 74 67  130/  6/  6   N/A           0
$$

ILZ025>027-034>036-040-047-049-050-058-095>099-312000-
WEST-CENTRAL ILLINOIS

CITY           SKY/WX    TMP DP  RH WIND       PRES   REMARKS
QUINCY         PTSUNNY   80  58  46 S12       29.94F HX  80
MACOMB*        MOSUNNY   83  60  45 S13G22    29.97F HX  83
PITTSFIELD*    MOSUNNY   79  61  54 SE8       29.96F HX  80
$$

ILZ028>032-037-038-041>044-048-051>054-059>061-312000-
CENTRAL ILLINOIS

CITY           SKY/WX    TMP DP  RH WIND       PRES   REMARKS
BLOOMINGTON    CLOUDY    73  60  63 W9        29.98F
DECATUR        CLOUDY    80  63  55 W6        29.95F HX  81
PEORIA         CLOUDY    74  60  61 SW3       29.95F
LINCOLN*       CLOUDY    71  66  84 CALM      29.95F
SPRINGFIELD    CLOUDY    80  65  59 S6        29.95F HX  82
TAYLORVILLE    NOT AVBL
$$

ILZ033-039-045-046-055>057-062-063-312000-
EAST-CENTRAL ILLINOIS

CITY           SKY/WX    TMP DP  RH WIND       PRES   REMARKS
CHAMPAIGN      MOSUNNY   84  59  42 W9G21     29.95F HX  84
MATTOON        PTSUNNY   83  57  41 SE9       29.94F HX  82
$$

ILZ079-100>102-312000-
SOUTHWEST ILLINOIS

CITY           SKY/WX    TMP DP  RH WIND       PRES   REMARKS
CAHOKIA*       SUNNY     80  65  59 VRB3      29.95F HX  82
SPARTA*        MOSUNNY   79  65  62 SW5       29.96F HX  81
$$

ILZ064>066-069>071-074>076-080>082-084>086-088>090-092>094-312000-
SOUTH-CENTRAL ILLINOIS

CITY           SKY/WX    TMP DP  RH WIND       PRES   REMARKS
CARBONDALE     PTSUNNY   82  65  56 SW9       29.94F HX  84
MARION         MOSUNNY   82  66  57 SW6       29.95  HX  85
MT. VERNON     CLOUDY    84  63  48 S10G16    29.95F HX  85
SALEM*         CLOUDY    79  65  62 N6        29.95S THUNDER HX  81
$$

ILZ067-068-072-073-078-083-087-091-312000-
SOUTHEAST ILLINOIS

CITY           SKY/WX    TMP DP  RH WIND       PRES   REMARKS
LAWRENCEVILLE  CLOUDY    88  55  32 S13       29.95F HX  86
FLORA*         PTSUNNY   88  61  39 S10G16    29.94F HX  88
HARRISBURG*    MOSUNNY   85  63  47 SW9       29.94F HX  86
ROBINSON*      MOSUNNY   86  61  42 S8G16     29.96F HX  86
$$

ABBREVIATIONS USED IN REMARKS
   TC - TEMPERATURE IN CELSIUS
  WCI - WIND CHILL INDEX
   HX - HEAT INDEX
  VSB - VISIBILITY
$$





USA.gov is the U.S. government's official web portal to all federal, state and local government web resources and services.